| time (UTC) | temp C | wind direction | speed KPH | gust KPH | rain 1hr cm | rain 24hr cm | rain mn cm | humidity % | barometer mb |
| 20260507143519 | 15 | 0.0 | 0.0 | 0.00 | 0.00 | 0.00 | 86 | 1014.1 | |
| 20260507142519 | 15 | 0.0 | 0.0 | 0.00 | 0.00 | 0.00 | 84 | 1014.0 | |
| 20260507141519 | 15 | 0.0 | 0.0 | 0.00 | 0.00 | 0.00 | 88 | 1014.0 | |
| 20260507140519 | 15 | 0.0 | 0.0 | 0.00 | 0.00 | 0.00 | 90 | 1013.9 | |
| 20260507135519 | 13 | 0.0 | 0.0 | 0.00 | 0.00 | 0.00 | 95 | 1013.8 | |
| 20260507134519 | 12 | 0.0 | 0.0 | 0.00 | 0.00 | 0.00 | 95 | 1013.6 | |
| 20260507133520 | 12 | 0.0 | 0.0 | 0.00 | 0.00 | 0.00 | 95 | 1013.7 | |
| 20260507132539 | 11 | 0.0 | 0.0 | 0.00 | 0.00 | 0.00 | 94 | 1013.6 | |
| 20260507131519 | 11 | 0.0 | 0.0 | 0.00 | 0.00 | 0.00 | 94 | 1013.5 | |
| 20260507130519 | 11 | 0.0 | 0.0 | 0.00 | 0.00 | 0.00 | 94 | 1013.4 | |
| 20260507125519 | 11 | 0.0 | 0.0 | 0.00 | 0.00 | 0.00 | 94 | 1013.4 | |
| 20260507124539 | 11 | 0.0 | 0.0 | 0.00 | 0.00 | 0.00 | 94 | 1013.4 | |
| 20260507123519 | 12 | 0.0 | 0.0 | 0.00 | 0.00 | 0.00 | 93 | 1013.3 | |
| 20260507122519 | 12 | 0.0 | 0.0 | 0.00 | 0.00 | 0.00 | 93 | 1013.3 | |
| 20260507121519 | 12 | 0.0 | 0.0 | 0.00 | 0.00 | 0.00 | 93 | 1013.3 | |
| 20260507120539 | 12 | 0.0 | 0.0 | 0.00 | 0.00 | 0.00 | 93 | 1013.3 | |
| 20260507115519 | 12 | 0.0 | 0.0 | 0.00 | 0.00 | 0.00 | 92 | 1013.1 | |
| 20260507114519 | 12 | 0.0 | 0.0 | 0.00 | 0.00 | 0.00 | 91 | 1013.3 | |
| 20260507113519 | 12 | 0.0 | 0.0 | 0.00 | 0.00 | 0.00 | 92 | 1013.3 | |
| 20260507112519 | 12 | 0.0 | 0.0 | 0.00 | 0.00 | 0.00 | 91 | 1013.4 | |
| 20260507111519 | 12 | 0.0 | 0.0 | 0.00 | 0.00 | 0.00 | 90 | 1013.6 | |
| 20260507110519 | 12 | 0.0 | 0.0 | 0.00 | 0.00 | 0.00 | 90 | 1013.6 | |
| 20260507105519 | 12 | 0.0 | 0.0 | 0.00 | 0.00 | 0.00 | 90 | 1013.6 | |
| 20260507104520 | 12 | 0.0 | 0.0 | 0.00 | 0.00 | 0.00 | 91 | 1013.7 | |
| 20260507103519 | 12 | 0.0 | 0.0 | 0.00 | 0.00 | 0.00 | 92 | 1013.8 | |
| 20260507102519 | 12 | 0.0 | 0.0 | 0.00 | 0.00 | 0.00 | 93 | 1013.6 | |
| 20260507101519 | 12 | 0.0 | 0.0 | 0.00 | 0.00 | 0.00 | 93 | 1014.0 | |
| 20260507100519 | 12 | 0.0 | 0.0 | 0.00 | 0.00 | 0.00 | 93 | 1014.0 | |
| 20260507095559 | 12 | 0.0 | 0.0 | 0.00 | 0.00 | 0.00 | 93 | 1014.1 | |
| 20260507094519 | 12 | 0.0 | 0.0 | 0.00 | 0.00 | 0.00 | 93 | 1014.0 | |
| 20260507093519 | 12 | 0.0 | 0.0 | 0.00 | 0.00 | 0.00 | 93 | 1014.0 | |
| 20260507092519 | 12 | 0.0 | 0.0 | 0.00 | 0.00 | 0.00 | 93 | 1014.1 | |
| 20260507091539 | 12 | 0.0 | 0.0 | 0.00 | 0.00 | 0.00 | 94 | 1014.2 | |
| 20260507090519 | 12 | 0.0 | 0.0 | 0.00 | 0.00 | 0.00 | 94 | 1014.4 | |
| 20260507085519 | 12 | 0.0 | 0.0 | 0.00 | 0.00 | 0.00 | 94 | 1014.4 | |
| 20260507084519 | 12 | 0.0 | 0.0 | 0.00 | 0.00 | 0.00 | 93 | 1014.4 | |
| 20260507083519 | 12 | 0.0 | 0.0 | 0.00 | 0.00 | 0.00 | 93 | 1014.6 | |
| 20260507082520 | 12 | 0.0 | 0.0 | 0.00 | 0.00 | 0.00 | 93 | 1014.7 | |
| 20260507081519 | 12 | 0.0 | 0.0 | 0.00 | 0.00 | 0.00 | 93 | 1014.8 | |
| 20260507080519 | 13 | 0.0 | 0.0 | 0.00 | 0.00 | 0.00 | 93 | 1014.6 | |
| 20260507075519 | 13 | 0.0 | 0.0 | 0.00 | 0.00 | 0.00 | 93 | 1014.6 | |
| 20260507074539 | 13 | 0.0 | 0.0 | 0.00 | 0.00 | 0.00 | 94 | 1014.9 | |
| 20260507073519 | 12 | 0.0 | 0.0 | 0.00 | 0.00 | 0.00 | 94 | 1014.9 | |
| 20260507072519 | 12 | 0.0 | 0.0 | 0.00 | 0.00 | 0.00 | 93 | 1015.0 | |
| 20260507071539 | 12 | 0.0 | 0.0 | 0.00 | 0.00 | 0.00 | 93 | 1015.1 | |
| 20260507070519 | 12 | 0.0 | 0.0 | 0.00 | 0.00 | 0.00 | 92 | 1015.1 | |
| 20260507065520 | 13 | 0.0 | 0.0 | 0.00 | 0.00 | 0.00 | 92 | 1015.1 | |
| 20260507064520 | 13 | 0.0 | 0.0 | 0.00 | 0.00 | 0.00 | 92 | 1015.0 | |
| 20260507063659 | 13 | 0.0 | 0.0 | 0.00 | 0.00 | 0.00 | 92 | 1015.0 | |
| 20260507062520 | 13 | 0.0 | 0.0 | 0.00 | 0.00 | 0.00 | 91 | 1014.8 | |
| 20260507061518 | 13 | 0.0 | 0.0 | 0.00 | 0.00 | 0.00 | 91 | 1014.8 | |
| 20260507060520 | 13 | 0.0 | 0.0 | 0.00 | 0.00 | 0.00 | 90 | 1014.9 | |
| 20260507055520 | 13 | 0.0 | 0.0 | 0.00 | 0.00 | 0.00 | 91 | 1015.0 | |
| 20260507054518 | 13 | 0.0 | 0.0 | 0.00 | 0.00 | 0.00 | 91 | 1014.9 | |
| 20260507053518 | 13 | 0.0 | 0.0 | 0.00 | 0.00 | 0.00 | 91 | 1015.1 | |
| 20260507052540 | 13 | 0.0 | 1.6 | 0.00 | 0.00 | 0.00 | 90 | 1014.9 | |
| 20260507051520 | 13 | 0.0 | 1.6 | 0.00 | 0.00 | 0.00 | 90 | 1014.9 | |
| 20260507050518 | 13 | 0.0 | 0.0 | 0.00 | 0.00 | 0.00 | 90 | 1014.8 | |
| 20260507045520 | 14 | 0.0 | 1.6 | 0.00 | 0.00 | 0.00 | 89 | 1014.7 | |
| 20260507044520 | 14 | 0.0 | 3.2 | 0.00 | 0.00 | 0.00 | 89 | 1014.6 | |
| 20260507043520 | 14 | 0.0 | 1.6 | 0.00 | 0.00 | 0.00 | 88 | 1014.9 | |
| 20260507042520 | 14 | 0.0 | 0.0 | 0.00 | 0.00 | 0.00 | 88 | 1014.8 | |
| 20260507041520 | 14 | 0.0 | 0.0 | 0.00 | 0.00 | 0.00 | 88 | 1014.9 | |
| 20260507040540 | 14 | 0.0 | 0.0 | 0.00 | 0.00 | 0.00 | 87 | 1014.8 | |
| 20260507035518 | 15 | 0.0 | 3.2 | 0.00 | 0.00 | 0.00 | 87 | 1014.6 | |
| 20260507034520 | 15 | 113 | 1.6 | 4.8 | 0.00 | 0.00 | 0.00 | 86 | 1014.4 |
| 20260507033540 | 15 | 0.0 | 1.6 | 0.00 | 0.00 | 0.00 | 86 | 1014.4 | |
| 20260507032518 | 15 | 135 | 1.6 | 3.2 | 0.00 | 0.00 | 0.00 | 85 | 1014.3 |
| 20260507031540 | 16 | 180 | 1.6 | 3.2 | 0.00 | 0.00 | 0.00 | 84 | 1014.3 |
| 20260507030520 | 16 | 180 | 1.6 | 4.8 | 0.00 | 0.00 | 0.00 | 82 | 1014.2 |
| 20260507025520 | 16 | 158 | 1.6 | 3.2 | 0.00 | 0.00 | 0.00 | 80 | 1014.1 |
| 20260507024518 | 17 | 203 | 1.6 | 4.8 | 0.00 | 0.00 | 0.00 | 77 | 1014.0 |
| 20260507023520 | 17 | 180 | 1.6 | 4.8 | 0.00 | 0.00 | 0.00 | 74 | 1013.8 |
| 20260507022520 | 17 | 158 | 3.2 | 6.4 | 0.00 | 0.00 | 0.00 | 72 | 1013.7 |
| 20260507021518 | 18 | 180 | 3.2 | 6.4 | 0.00 | 0.00 | 0.00 | 69 | 1013.6 |
| 20260507020519 | 18 | 203 | 1.6 | 4.8 | 0.00 | 0.00 | 0.00 | 65 | 1013.6 |
| 20260507015518 | 19 | 203 | 3.2 | 8.0 | 0.00 | 0.00 | 0.00 | 63 | 1013.5 |
| 20260507014520 | 20 | 135 | 3.2 | 8.0 | 0.00 | 0.00 | 0.00 | 61 | 1013.4 |
| 20260507013520 | 20 | 203 | 3.2 | 9.7 | 0.00 | 0.00 | 0.00 | 59 | 1013.5 |
| 20260507012540 | 21 | 158 | 3.2 | 9.7 | 0.00 | 0.00 | 0.00 | 59 | 1013.4 |
| 20260507011520 | 21 | 180 | 3.2 | 9.7 | 0.00 | 0.00 | 0.00 | 59 | 1013.3 |
| 20260507010520 | 21 | 225 | 3.2 | 8.0 | 0.00 | 0.00 | 0.00 | 60 | 1013.2 |
| 20260507005540 | 21 | 158 | 6.4 | 11.3 | 0.00 | 0.00 | 0.00 | 60 | 1013.2 |
| 20260507004519 | 21 | 158 | 4.8 | 12.9 | 0.00 | 0.00 | 0.00 | 60 | 1013.1 |
| 20260507003520 | 21 | 158 | 4.8 | 12.9 | 0.00 | 0.00 | 0.00 | 58 | 1013.1 |
| 20260507002520 | 21 | 203 | 4.8 | 14.5 | 0.00 | 0.00 | 0.00 | 60 | 1013.1 |
| 20260507001520 | 21 | 180 | 6.4 | 12.9 | 0.00 | 0.00 | 0.00 | 60 | 1013.0 |
| 20260507000520 | 22 | 135 | 4.8 | 12.9 | 0.00 | 0.00 | 0.00 | 59 | 1012.9 |
| 20260506235520 | 22 | 203 | 4.8 | 14.5 | 0.00 | 0.00 | 0.00 | 60 | 1012.9 |
| 20260506234540 | 22 | 225 | 4.8 | 11.3 | 0.00 | 0.00 | 0.00 | 60 | 1012.9 |
| 20260506233520 | 22 | 135 | 4.8 | 9.7 | 0.00 | 0.00 | 0.00 | 60 | 1012.8 |
| 20260506232520 | 22 | 158 | 6.4 | 14.5 | 0.00 | 0.00 | 0.00 | 60 | 1012.8 |
| 20260506231540 | 22 | 203 | 6.4 | 16.1 | 0.00 | 0.00 | 0.00 | 59 | 1012.9 |
| 20260506230540 | 22 | 180 | 3.2 | 11.3 | 0.00 | 0.00 | 0.00 | 59 | 1013.0 |
| 20260506225520 | 22 | 248 | 6.4 | 19.3 | 0.00 | 0.00 | 0.00 | 59 | 1013.1 |
| 20260506224520 | 22 | 158 | 6.4 | 17.7 | 0.00 | 0.00 | 0.00 | 61 | 1013.0 |
| 20260506223520 | 22 | 225 | 6.4 | 14.5 | 0.00 | 0.00 | 0.00 | 62 | 1013.3 |
| 20260506222519 | 22 | 203 | 8.0 | 17.7 | 0.00 | 0.00 | 0.00 | 62 | 1013.4 |
| 20260506221701 | 22 | 225 | 6.4 | 14.5 | 0.00 | 0.00 | 0.00 | 63 | 1013.4 |
| 20260506220520 | 22 | 225 | 8.0 | 17.7 | 0.00 | 0.00 | 0.00 | 62 | 1013.6 |
| 20260506215520 | 22 | 203 | 9.7 | 20.9 | 0.00 | 0.00 | 0.00 | 63 | 1013.5 |
| 20260506214520 | 22 | 180 | 8.0 | 14.5 | 0.00 | 0.00 | 0.00 | 62 | 1013.7 |
| 20260506213520 | 22 | 225 | 6.4 | 16.1 | 0.00 | 0.00 | 0.00 | 62 | 1013.8 |
| 20260506212520 | 22 | 248 | 8.0 | 14.5 | 0.00 | 0.00 | 0.00 | 61 | 1013.9 |
| 20260506211520 | 22 | 270 | 8.0 | 19.3 | 0.00 | 0.00 | 0.00 | 61 | 1013.9 |
| 20260506210520 | 22 | 203 | 4.8 | 14.5 | 0.00 | 0.00 | 0.00 | 61 | 1014.0 |
| 20260506205520 | 22 | 248 | 8.0 | 16.1 | 0.00 | 0.00 | 0.00 | 60 | 1014.0 |
| 20260506205408 | 22 | 203 | 6.4 | 16.1 | 0.00 | 0.00 | 0.00 | 61 | 1014.0 |
| 20260506191520 | 22 | 135 | 3.2 | 11.3 | 0.00 | 0.00 | 0.00 | 52 | 1015.1 |
| 20260506190520 | 22 | 158 | 3.2 | 9.7 | 0.00 | 0.00 | 0.00 | 53 | 1015.2 |
| 20260506185520 | 22 | 0.0 | 3.2 | 0.00 | 0.00 | 0.00 | 53 | 1015.2 | |
| 20260506184519 | 21 | 225 | 1.6 | 6.4 | 0.00 | 0.00 | 0.00 | 54 | 1015.3 |
| 20260506183540 | 21 | 225 | 3.2 | 11.3 | 0.00 | 0.00 | 0.00 | 56 | 1015.4 |
| 20260506182520 | 21 | 90 | 1.6 | 8.0 | 0.00 | 0.00 | 0.00 | 57 | 1015.5 |
| 20260506181520 | 20 | 338 | 1.6 | 9.7 | 0.00 | 0.00 | 0.00 | 58 | 1015.6 |
| 20260506180519 | 20 | 225 | 1.6 | 6.4 | 0.00 | 0.00 | 0.00 | 59 | 1015.6 |
| 20260506175519 | 20 | 315 | 1.6 | 4.8 | 0.00 | 0.00 | 0.00 | 58 | 1015.8 |
| 20260506174520 | 20 | 225 | 1.6 | 8.0 | 0.00 | 0.00 | 0.00 | 58 | 1015.8 |
| 20260506173520 | 19 | 0.0 | 3.2 | 0.00 | 0.00 | 0.00 | 60 | 1015.9 | |
| 20260506172520 | 18 | 225 | 3.2 | 8.0 | 0.00 | 0.00 | 0.00 | 60 | 1015.9 |
| 20260506171519 | 18 | 225 | 1.6 | 6.4 | 0.00 | 0.00 | 0.00 | 62 | 1016.0 |
| 20260506170520 | 18 | 0.0 | 4.8 | 0.00 | 0.00 | 0.00 | 63 | 1016.0 | |
| 20260506165520 | 18 | 248 | 1.6 | 3.2 | 0.00 | 0.00 | 0.00 | 64 | 1016.0 |
| 20260506164520 | 17 | 0.0 | 1.6 | 0.00 | 0.00 | 0.00 | 65 | 1016.0 | |
| 20260506163520 | 17 | 158 | 3.2 | 8.0 | 0.00 | 0.00 | 0.00 | 66 | 1016.0 |
| 20260506162519 | 17 | 135 | 1.6 | 4.8 | 0.00 | 0.00 | 0.00 | 67 | 1016.1 |
| 20260506161520 | 17 | 225 | 1.6 | 4.8 | 0.00 | 0.00 | 0.00 | 67 | 1016.1 |
| 20260506160519 | 17 | 113 | 1.6 | 6.4 | 0.00 | 0.00 | 0.00 | 69 | 1016.0 |
| 20260506155520 | 16 | 203 | 1.6 | 4.8 | 0.00 | 0.00 | 0.00 | 73 | 1015.9 |
| 20260506154520 | 16 | 113 | 1.6 | 4.8 | 0.00 | 0.00 | 0.00 | 73 | 1015.9 |
| 20260506153519 | 16 | 135 | 1.6 | 3.2 | 0.00 | 0.00 | 0.00 | 74 | 1016.1 |
| 20260506152519 | 16 | 0.0 | 0.0 | 0.00 | 0.00 | 0.00 | 76 | 1016.0 | |
| 20260506151520 | 16 | 113 | 1.6 | 4.8 | 0.00 | 0.00 | 0.00 | 74 | 1016.0 |
| 20260506150519 | 16 | 0.0 | 0.0 | 0.00 | 0.00 | 0.00 | 77 | 1016.0 | |
| 20260506145540 | 14 | 0.0 | 0.0 | 0.00 | 0.00 | 0.00 | 82 | 1016.0 | |
| 20260506144520 | 13 | 23 | 1.6 | 3.2 | 0.00 | 0.00 | 0.00 | 82 | 1015.9 |